Wind_Speed
39 39 38 37 36 35 36 37 38 40 41 40 39 38 37 37 37 37 37 37 36 35 35 35 35 35 35 35 34 34 33 33 34 34 35 36 37 38 39 39 40 40 41 41 41 42 42 43 43 43 44 44 44 45 45 46 47 47 48 49 49 51 52 54 58 60 58 58 59 60 61 61 59 57 56 55 55 57 60 62 64 65 65 65 65
40 39 37 36 36 37 39 40 41 42 41 40 38 37 37 36 36 36 36 35 35 34 35 35 35 35 35 34 34 34 34 34 35 36 37 38 39 40 40 41 41 42 42 42 41 41 41 42 42 42 43 43 44 45 45 46 47 47 48 49 50 51 53 55 58 60 61 60 59 60 62 64 63 62 62 61 58 57 58 59 62 64 66 66 67
39 37 37 37 39 41 41 41 41 41 39 37 36 36 36 36 36 36 35 35 35 35 35 35 35 34 34 34 34 34 34 35 36 37 38 39 40 41 41 41 41 41 41 41 40 40 41 41 42 42 42 43 44 45 46 46 47 48 48 49 50 51 53 55 57 60 62 62 61 61 62 64 65 64 65 65 63 61 61 60 60 62 64 66 68
38 37 38 40 42 43 42 42 41 39 36 35 35 35 35 36 36 36 36 36 35 35 35 34 34 34 33 34 34 35 36 37 38 39 39 40 40 40 40 40 40 39 39 40 40 40 41 41 42 43 43 44 44 45 46 47 47 48 49 50 51 52 53 55 56 59 61 62 62 62 63 65 67 66 67 67 65 63 64 63 62 62 62 64 66
39 40 41 43 44 43 43 42 40 37 36 36 36 36 37 37 38 38 37 36 35 34 34 33 33 33 34 35 36 37 38 38 39 39 39 39 39 39 39 39 39 39 39 40 40 41 42 42 43 44 44 45 46 46 46 47 48 48 49 50 51 53 54 55 56 58 60 61 62 62 62 64 66 67 67 67 67 64 64 64 63 62 62 62 63
41 42 43 44 43 43 43 42 40 38 38 38 38 38 39 39 39 38 36 35 34 33 33 33 34 35 36 37 39 39 39 39 39 39 39 38 38 39 39 39 39 39 39 40 41 42 42 43 44 45 46 46 47 48 48 48 49 49 50 51 52 53 55 56 57 58 60 61 62 62 62 63 65 66 66 66 67 66 65 64 63 61 61 61 62
43 44 44 43 43 43 42 41 40 40 39 38 38 39 40 39 38 37 35 34 34 33 34 34 35 37 39 40 40 40 39 39 39 39 39 39 39 39 39 39 39 39 40 41 42 43 43 44 45 45 46 47 48 48 49 49 50 50 51 52 53 55 56 57 58 60 61 62 62 63 63 63 63 65 65 65 66 66 66 66 64 61 60 60 60
44 44 44 43 43 42 40 40 41 40 38 37 38 39 39 38 37 36 35 35 34 35 35 35 37 39 41 41 40 39 39 39 39 39 39 39 38 38 38 39 39 40 41 41 42 43 44 44 45 45 46 47 47 48 49 50 50 51 52 53 54 56 57 58 60 61 62 63 63 63 63 63 63 63 64 63 63 63 64 65 64 62 60 59 58
44 44 44 43 42 41 40 41 41 40 38 37 37 38 38 37 36 36 36 36 36 36 36 37 39 41 41 39 38 38 39 39 39 39 38 38 38 38 38 39 40 40 41 42 42 43 44 45 45 46 46 46 46 47 48 49 50 52 53 54 55 57 59 60 62 63 63 63 63 63 63 62 61 61 61 61 60 61 61 62 62 62 61 60 57
45 46 46 45 44 43 43 42 41 39 37 36 37 37 37 36 36 36 36 37 37 38 39 40 41 40 39 38 38 38 39 39 38 38 37 37 38 38 39 39 40 41 42 42 43 44 45 45 46 46 46 46 46 47 48 49 51 52 54 55 57 59 60 62 63 64 64 63 62 62 62 61 59 58 58 58 58 58 59 60 60 59 60 60 57
46 47 47 47 47 46 44 42 39 38 37 36 36 36 36 35 35 36 37 38 39 40 41 42 41 39 38 38 38 39 39 38 37 37 37 38 38 39 40 40 41 42 43 44 45 45 45 45 46 46 46 46 47 47 49 50 52 53 55 56 58 59 61 62 63 63 62 61 59 59 59 58 57 56 57 57 57 57 58 59 59 58 59 60 57
46 47 48 48 47 45 42 40 38 37 36 35 35 35 35 35 35 36 38 39 41 42 42 42 40 39 38 38 38 39 38 37 37 37 38 39 40 40 41 42 43 44 45 45 45 46 46 46 46 46 46 47 48 49 50 52 53 54 55 56 57 58 60 61 60 59 58 58 57 56 56 55 55 55 55 56 55 56 56 57 57 58 58 58 58
46 46 46 44 43 41 39 38 38 37 36 35 34 34 34 35 36 38 40 41 43 43 42 40 39 39 39 39 39 39 38 38 38 39 39 40 41 42 42 43 45 45 45 45 45 45 45 46 46 46 47 48 49 51 53 54 55 55 56 56 57 58 59 59 57 56 56 56 55 54 54 54 54 54 54 54 54 54 55 55 55 56 56 56 56
44 43 41 41 40 39 38 39 38 38 36 34 34 34 34 36 38 40 41 42 42 41 41 40 40 40 40 40 39 39 39 39 39 40 41 41 42 43 43 44 44 44 44 44 44 45 45 46 47 47 48 50 51 53 54 55 56 57 57 58 58 58 58 57 55 54 54 54 54 53 52 53 53 53 52 52 52 52 53 53 53 54 54 54 55
40 40 40 40 40 39 39 39 38 37 35 33 34 34 36 38 40 41 41 41 41 40 40 40 40 40 40 40 40 39 40 40 41 41 42 42 43 43 43 43 43 43 42 43 43 44 45 46 48 49 50 51 52 54 55 57 59 60 60 60 58 58 57 55 53 52 51 52 52 52 51 51 51 51 51 50 50 49 50 50 50 51 52 52 52
39 40 40 40 39 39 38 37 35 34 33 33 35 36 38 39 40 40 40 40 40 40 40 41 41 41 41 40 40 40 40 41 42 42 43 43 43 43 42 42 41 41 41 42 43 44 46 47 49 50 50 52 53 56 58 60 62 62 61 60 58 57 56 53 52 51 51 51 51 51 51 51 50 49 48 48 47 47 48 48 48 49 50 50 50
37 37 37 37 36 35 34 33 32 32 33 34 36 37 39 39 39 40 40 40 41 41 41 41 41 41 41 41 40 41 41 42 42 43 43 43 43 42 41 41 40 41 42 43 44 46 47 49 50 51 52 54 56 58 59 60 61 60 60 59 57 56 54 52 52 52 52 51 50 49 49 48 47 47 46 45 44 44 46 48 48 48 49 49 50
35 34 33 33 32 32 31 31 31 32 34 35 36 37 38 38 39 40 40 41 41 41 41 41 41 41 41 41 41 41 42 43 43 43 43 42 42 41 41 41 41 42 44 45 46 48 49 50 51 53 54 56 58 59 58 57 58 58 57 57 56 54 53 52 52 52 51 50 49 48 47 45 43 43 42 41 39 39 42 44 44 45 47 49 49
32 32 32 31 31 30 30 31 32 33 34 35 36 36 37 37 39 40 40 41 41 41 41 41 41 41 41 42 42 42 42 43 43 42 42 41 41 42 42 43 44 45 46 47 48 49 50 51 53 54 57 58 58 57 55 55 56 56 55 55 54 53 51 51 52 51 51 50 50 49 48 46 44 40 37 36 35 35 38 40 40 42 46 47 47
32 31 31 31 30 30 30 31 33 33 34 35 35 35 36 37 38 39 39 40 40 40 41 41 41 42 42 42 43 43 43 42 42 42 41 41 42 43 44 45 46 48 49 49 50 51 52 53 54 56 58 58 56 54 53 53 54 54 53 52 52 51 50 50 51 51 51 50 50 50 50 48 46 42 38 36 36 36 37 39 40 41 43 44 44
31 31 31 30 30 31 31 32 33 33 34 34 34 34 35 36 36 37 37 38 39 40 41 41 42 42 42 42 42 42 42 41 41 41 41 41 43 45 46 47 49 50 51 51 52 53 53 54 56 57 57 55 53 53 52 51 50 50 49 49 49 49 49 49 50 50 50 50 49 49 49 48 45 41 38 36 36 36 37 38 38 38 38 39 40
30 31 31 31 31 32 32 32 33 33 33 33 33 34 34 34 34 35 35 37 38 39 40 41 41 42 42 42 42 41 41 41 40 41 41 42 44 46 47 49 50 51 53 53 54 54 55 56 57 56 55 53 53 52 51 49 47 45 45 46 46 47 47 48 48 48 48 48 48 48 47 46 44 40 37 36 36 35 35 34 33 33 33 34 36
30 31 31 31 32 32 32 32 32 32 32 32 33 33 33 33 33 34 35 36 37 38 39 40 41 41 41 41 41 41 41 40 40 41 42 43 45 47 48 50 51 53 54 55 55 55 56 57 56 54 53 53 53 52 49 46 43 42 43 44 45 45 45 46 46 46 46 46 46 46 45 42 41 39 37 35 34 33 32 31 30 30 31 32 32
30 31 31 31 31 31 31 32 32 32 32 32 32 32 33 33 33 34 34 35 36 38 38 39 40 40 40 40 40 40 40 40 40 41 42 44 45 47 49 50 52 54 55 55 55 55 55 55 53 53 53 53 52 49 45 42 41 42 42 43 44 44 44 45 45 45 45 45 45 45 43 40 37 36 34 33 33 31 30 29 30 30 31 32 32
30 30 30 30 31 31 31 31 31 31 32 33 33 33 33 33 33 33 34 35 36 37 37 37 38 37 38 38 39 39 39 40 40 41 43 45 46 47 49 51 52 54 55 55 55 54 53 52 52 53 53 52 49 45 41 40 40 41 41 42 42 43 43 44 45 45 45 44 44 43 41 38 35 33 32 31 31 30 30 30 31 30 31 32 34
30 30 30 31 31 31 31 30 31 32 33 34 34 34 33 33 33 33 34 34 35 36 36 36 36 36 37 38 38 39 39 39 40 42 43 45 46 48 50 51 53 54 54 54 54 53 52 51 52 52 51 48 44 41 39 39 40 40 41 41 41 41 41 42 43 43 43 43 42 41 40 37 34 31 30 30 31 30 31 32 33 32 31 33 36
31 31 31 32 32 32 32 32 33 34 35 35 35 34 34 34 34 34 34 34 35 35 36 36 36 37 37 38 38 39 39 39 40 42 44 45 47 48 50 51 53 54 54 54 54 53 51 51 51 50 47 43 40 38 37 38 40 40 40 40 39 39 39 40 40 41 41 41 40 39 38 36 35 32 30 30 31 30 31 33 34 34 33 34 37
32 33 33 34 34 35 35 35 36 36 37 37 36 35 35 35 35 35 35 35 35 36 36 37 37 38 38 39 38 38 38 39 40 42 44 46 47 49 50 52 53 54 54 53 53 51 51 50 48 45 42 39 37 35 36 37 39 39 39 38 38 37 37 37 37 37 38 38 38 37 36 35 35 33 32 32 32 31 31 33 34 34 34 36 38
34 34 35 36 37 37 38 38 39 39 39 39 38 37 37 37 36 36 36 36 36 36 37 37 38 38 38 38 38 38 38 39 40 42 44 46 47 49 51 52 53 53 53 52 51 50 49 48 44 41 38 36 35 34 35 36 37 37 37 37 37 36 35 35 35 35 35 35 35 35 35 34 33 33 33 33 32 32 32 33 34 35 36 37 39
36 36 37 38 38 39 40 41 41 41 41 40 39 38 38 38 38 37 37 37 37 37 37 38 38 38 38 38 38 38 38 39 41 43 45 46 48 50 51 51 52 52 51 50 49 48 47 44 40 38 36 34 33 34 35 36 36 36 35 35 35 35 34 34 34 34 34 33 33 33 33 34 33 33 32 32 31 30 30 31 32 33 35 37 38
38 38 38 39 39 41 42 43 43 43 42 41 40 40 40 39 39 39 38 38 38 38 38 38 38 38 38 37 37 38 39 40 42 44 45 46 48 49 50 50 51 51 50 48 47 46 43 40 37 36 34 33 33 34 35 36 36 36 35 34 34 34 34 33 33 34 33 33 33 33 33 33 33 32 32 32 31 30 29 29 29 30 32 34 35
40 40 40 40 40 42 43 44 44 43 42 42 41 41 41 41 41 40 40 39 39 39 39 38 38 38 38 38 38 39 40 41 43 44 45 46 48 49 49 49 50 49 48 47 45 42 39 37 35 34 32 32 33 34 35 35 35 35 34 33 33 33 33 33 33 33 33 33 33 33 33 32 32 32 32 31 31 30 29 28 29 29 30 31 32
41 42 41 41 41 42 44 45 45 44 43 42 43 43 42 42 42 42 42 41 41 40 40 39 39 39 39 39 39 40 41 42 43 43 44 46 48 48 48 48 48 48 46 45 42 39 36 35 33 32 31 32 32 32 33 34 33 33 33 32 32 31 31 31 31 31 32 32 32 32 32 32 32 32 31 30 30 30 29 29 29 29 30 30 31
42 42 41 41 42 43 44 45 45 45 44 44 44 44 44 44 44 44 43 43 43 42 41 41 40 40 40 40 41 41 42 42 43 44 45 46 47 46 47 48 47 46 44 42 39 36 35 33 31 30 30 31 31 31 31 31 31 31 30 30 30 30 29 29 29 29 29 29 29 30 30 30 31 31 31 30 29 29 29 29 29 29 30 31 31
41 41 41 41 43 44 45 46 47 46 46 46 46 46 46 46 45 45 45 45 44 44 43 42 42 42 42 41 41 42 42 43 43 44 46 46 46 46 46 47 45 44 42 39 37 35 34 32 30 29 30 30 30 30 29 29 29 28 28 28 27 28 28 27 27 27 28 28 28 28 28 29 29 30 30 30 29 29 29 29 29 30 30 31 31
41 41 41 42 43 45 46 47 48 48 48 47 47 48 48 48 47 47 47 46 46 45 44 44 43 43 43 43 42 43 43 43 44 45 46 46 45 46 46 45 43 41 39 36 35 34 33 31 30 29 29 29 29 29 28 27 27 26 26 26 26 26 26 27 27 28 28 28 28 28 28 28 29 29 30 30 29 29 29 29 29 29 29 30 31
41 41 42 43 44 45 46 48 49 49 49 48 48 49 50 49 48 48 48 47 47 47 46 45 44 44 44 44 44 44 43 43 44 46 46 45 45 45 45 44 42 38 35 34 33 32 32 31 30 29 29 29 28 28 27 26 26 25 24 25 25 25 25 26 27 28 28 28 28 28 27 27 28 29 29 29 29 28 28 29 29 30 29 30 31
41 41 42 43 44 45 46 48 49 50 49 49 49 50 50 49 49 48 48 47 47 47 46 45 44 44 44 45 45 45 44 44 45 45 45 45 45 45 45 44 41 36 33 32 32 31 30 30 30 30 29 29 28 28 27 26 25 24 24 23 24 25 25 25 26 26 27 27 28 27 27 27 27 27 27 28 28 28 28 28 28 29 29 29 30
41 41 41 42 43 45 46 48 48 49 49 49 49 50 50 49 49 49 48 48 48 47 46 46 45 44 44 45 46 46 45 45 45 45 45 45 45 45 45 43 39 35 32 31 31 30 29 29 30 30 30 29 28 28 27 26 25 25 24 24 24 24 25 25 25 25 26 27 27 27 27 27 27 26 26 27 27 27 27 27 27 28 28 28 28
42 41 41 42 43 45 46 47 48 48 49 49 49 50 50 49 49 49 49 49 48 47 47 46 45 45 45 45 46 46 46 46 46 45 44 44 44 45 44 42 38 34 32 31 30 29 29 29 30 30 30 30 29 27 26 26 26 25 25 25 25 25 25 26 26 26 26 26 27 27 27 27 27 26 26 26 26 26 27 27 27 27 27 28 28
42 42 42 43 44 45 46 47 47 48 48 49 50 50 50 50 50 50 50 49 49 48 48 47 46 46 46 46 46 46 46 46 46 45 44 43 43 43 44 41 37 33 32 31 30 29 28 29 30 30 30 30 29 28 27 26 26 26 26 26 26 26 26 27 27 27 27 27 27 27 27 27 28 27 26 25 25 26 26 26 26 26 26 27 28
42 42 43 43 44 45 46 47 48 48 49 50 51 51 51 51 51 51 51 51 50 50 49 48 47 46 46 46 46 46 46 46 45 44 44 42 41 41 42 39 35 32 32 31 30 29 28 28 29 30 30 29 28 28 27 27 27 27 26 26 26 27 27 27 28 28 27 27 28 28 27 27 28 28 27 26 25 26 26 26 25 24 24 25 25
42 42 43 44 45 46 47 48 49 50 51 52 52 53 53 53 53 53 53 52 52 51 50 49 47 47 46 46 46 46 46 46 45 44 43 42 41 40 39 37 34 32 32 32 31 29 29 29 29 29 29 29 28 28 27 28 28 28 28 27 27 27 27 28 28 28 28 27 27 27 27 27 28 27 26 26 25 25 25 26 25 23 23 22 22
41 42 43 45 46 47 48 50 51 52 53 54 54 55 55 55 55 55 55 54 53 52 51 49 48 47 46 46 47 47 46 46 45 44 42 41 40 39 37 36 33 32 32 31 30 30 29 29 29 29 29 28 28 28 27 28 29 29 29 28 28 28 28 28 28 28 28 28 27 27 27 27 27 27 26 26 26 25 25 25 25 23 22 21 21
42 43 44 46 47 49 51 52 53 54 55 56 57 57 57 57 57 57 56 56 55 54 52 51 50 49 48 48 48 48 47 46 45 43 42 40 39 38 36 34 32 31 31 31 30 30 30 29 29 28 28 28 28 28 28 28 29 29 30 30 29 29 29 29 28 28 29 28 28 28 27 27 28 27 26 26 26 26 26 26 25 25 24 22 21
43 45 46 48 50 51 53 54 55 56 57 58 59 60 60 60 60 59 59 58 57 55 54 53 52 51 50 50 49 48 47 46 44 43 41 39 38 36 34 32 31 31 31 30 30 30 30 29 28 28 27 27 27 27 28 28 28 29 30 30 30 30 30 30 29 29 29 29 28 28 27 27 27 27 27 26 26 26 27 27 26 26 25 25 23
45 47 48 50 51 53 55 56 58 59 60 61 62 63 63 63 63 62 61 60 58 57 55 54 53 52 51 50 48 47 46 45 43 42 40 38 36 34 32 31 31 31 30 29 29 29 29 28 27 27 26 26 26 26 27 27 28 28 29 29 30 30 30 30 30 29 29 29 29 28 28 27 27 27 26 26 26 26 26 26 26 26 26 25 25
47 48 50 51 53 54 55 56 58 59 60 61 62 63 64 64 64 63 62 61 60 58 56 55 53 52 50 49 47 45 44 43 42 40 38 36 34 32 30 30 30 30 29 28 28 28 28 27 26 25 25 25 25 25 25 26 26 27 27 28 28 29 29 29 29 29 29 29 28 28 28 27 27 27 26 26 26 25 25 26 25 25 25 25 25
48 49 50 50 50 50 50 51 52 53 55 56 57 58 59 59 59 59 59 58 57 56 54 53 52 50 48 46 44 43 41 40 39 37 35 33 31 30 29 29 29 29 28 27 26 26 26 25 25 25 24 25 25 25 25 25 25 26 26 26 27 28 28 28 29 29 28 28 28 28 28 27 26 26 26 25 25 25 25 25 25 25 24 24 23
46 46 44 43 42 42 43 45 47 48 50 51 51 51 51 51 51 51 51 50 50 49 48 47 46 45 43 42 40 39 38 37 35 33 31 30 28 28 28 29 28 27 25 24 24 25 25 25 25 25 25 25 25 25 25 25 25 25 25 26 26 27 27 27 28 28 28 27 27 27 27 27 26 25 25 25 24 24 24 24 24 24 24 24 23
39 37 36 35 36 38 40 42 44 45 44 44 43 42 41 40 40 40 40 41 41 41 41 40 39 38 37 36 35 34 33 32 30 29 27 26 27 28 28 27 26 24 23 23 23 23 24 24 25 25 25 25 25 25 26 25 25 25 25 25 26 26 26 27 27 27 27 27 26 26 26 26 26 25 25 24 23 23 23 23 23 23 23 23 22
Wind_Direction
268 267 268 269 272 277 283 288 292 295 297 297 296 296 297 297 297 298 299 301 302 302 301 301 300 300 299 299 299 298 298 297 297 297 297 297 297 297 297 296 296 296 295 295 295 294 294 294 294 293 293 293 293 293 293 293 293 293 293 293 292 293 292 292 291 290 289 289 290 291 291 290 288 286 283 279 276 276 275 275 275 274 272 269 266
266 267 268 272 276 281 287 293 297 298 296 295 295 295 296 297 298 299 300 300 300 299 298 298 297 297 297 297 296 296 296 296 296 296 296 296 297 297 297 297 297 297 297 296 296 295 294 294 293 293 292 292 292 292 292 292 292 292 292 292 292 292 293 292 292 292 290 290 290 290 291 291 290 288 287 284 281 278 277 275 274 274 273 272 270
266 268 272 276 281 286 291 295 297 296 293 292 293 294 295 297 298 299 299 299 298 297 297 297 296 296 296 295 295 294 295 295 296 296 296 297 297 297 297 297 297 297 297 296 296 296 295 294 294 293 293 292 292 292 291 291 291 291 291 292 291 291 291 292 292 292 291 291 291 291 291 291 290 289 288 286 284 281 280 278 275 274 273 273 272
268 273 277 281 285 288 291 294 296 295 293 293 294 295 297 299 299 299 298 297 297 296 295 295 295 294 294 294 294 295 296 296 296 297 296 296 297 297 297 296 296 296 296 296 296 296 295 295 295 294 293 293 292 292 292 291 291 291 291 291 291 291 291 291 292 292 292 291 291 291 291 291 291 290 289 288 286 283 281 280 278 276 274 273 272
272 277 281 284 286 288 290 294 298 297 296 296 296 298 299 298 297 297 296 295 294 293 293 293 293 293 293 294 295 296 297 297 297 297 297 297 297 297 297 296 296 296 296 296 296 296 295 295 294 294 294 293 293 293 292 292 292 292 292 292 292 292 292 292 292 292 292 292 291 290 290 290 290 290 289 289 288 285 282 281 279 278 276 274 272
276 279 282 284 284 287 291 296 298 297 296 296 296 296 296 295 294 293 293 292 291 291 291 292 292 292 293 295 296 297 298 298 299 299 299 299 298 298 297 297 297 297 296 296 296 295 295 294 294 294 294 294 293 293 293 294 294 294 294 293 293 293 293 292 293 293 293 293 293 292 290 289 289 289 289 289 289 287 284 281 279 277 276 275 273
278 280 281 282 283 287 290 293 294 293 292 293 293 293 292 292 291 290 289 289 289 289 289 290 291 293 294 296 297 298 299 300 300 300 300 299 298 298 297 297 297 297 297 296 296 295 295 294 294 294 294 294 294 295 295 295 295 295 295 295 295 294 295 295 295 295 295 295 295 294 293 291 291 290 290 290 289 288 287 284 281 278 276 275 274
277 278 279 280 282 285 287 289 290 288 288 288 290 290 290 289 288 287 287 286 286 287 288 289 291 294 295 297 298 299 299 299 300 299 298 297 297 296 297 297 297 297 297 297 296 296 295 295 295 295 295 295 296 296 297 296 296 296 296 296 296 297 297 297 297 297 297 296 296 295 294 293 291 291 290 290 289 288 287 286 284 282 279 276 274
276 276 277 278 281 283 284 285 286 286 285 286 288 289 288 287 285 285 284 285 285 286 288 290 293 295 296 297 298 298 298 298 298 297 296 296 296 296 297 297 297 297 297 296 296 296 295 295 296 296 296 296 297 297 297 297 297 297 297 298 298 298 298 298 298 298 297 297 296 295 294 293 292 291 290 289 289 287 286 286 285 284 283 280 277
273 275 275 277 279 281 282 283 283 284 284 284 286 286 285 283 283 282 282 284 285 287 290 292 294 295 296 296 297 297 297 297 296 295 295 295 296 297 298 298 298 297 297 297 296 296 296 296 297 297 297 297 297 297 298 298 298 298 299 299 299 300 300 300 300 299 298 297 296 295 294 293 293 292 291 290 289 287 287 286 285 284 284 282 280
271 272 274 275 276 277 279 280 281 282 282 283 284 283 282 280 280 280 281 283 285 288 292 294 295 295 296 296 296 296 296 296 295 294 295 296 297 298 299 299 299 299 299 298 298 298 298 298 298 298 298 298 299 299 299 299 299 299 300 300 301 302 302 302 301 300 298 297 296 295 295 294 294 293 291 290 289 288 287 287 286 285 284 283 281
268 270 271 273 274 275 277 278 279 280 281 282 281 280 278 277 277 278 280 283 287 290 293 294 295 295 295 296 296 296 296 295 294 294 296 297 298 299 300 300 300 300 300 300 299 299 299 299 299 300 300 300 300 300 300 300 300 300 300 301 301 303 303 303 302 300 299 298 297 297 296 295 294 293 291 290 289 289 288 287 287 286 284 284 282
268 269 270 271 272 273 275 277 279 280 280 279 278 277 276 276 276 278 281 285 288 291 293 294 294 295 295 296 296 295 295 294 294 295 296 297 298 299 300 301 301 301 300 300 300 300 300 300 301 301 301 301 301 301 301 301 301 301 301 301 302 303 304 304 303 302 301 300 299 298 297 296 294 292 291 290 290 289 288 287 286 285 285 285 284
267 268 268 269 270 272 275 277 279 279 278 277 275 275 275 275 277 280 284 287 289 291 292 293 293 293 294 295 295 294 294 294 294 295 297 297 299 300 301 301 301 301 301 301 301 301 301 301 301 301 302 302 302 302 302 302 302 302 301 302 302 303 304 304 303 302 301 300 299 298 297 295 293 292 291 290 290 289 288 287 286 286 285 284 284
265 266 267 268 271 273 276 277 277 276 275 275 275 276 276 278 281 283 285 287 289 290 290 291 291 292 293 293 293 293 294 294 294 295 297 298 299 300 300 300 300 301 301 301 301 301 301 301 301 301 301 302 302 303 303 303 302 302 302 302 302 302 303 303 302 301 301 300 298 297 296 294 292 291 290 289 289 288 287 286 285 285 284 284 284
265 266 267 269 271 273 273 273 274 274 275 277 278 279 280 281 283 285 286 287 288 288 288 289 290 291 292 292 292 293 293 293 294 295 296 297 298 298 298 298 299 299 300 300 300 300 300 300 301 301 302 302 303 304 304 303 303 302 302 301 301 301 302 303 303 302 301 299 298 297 296 295 294 293 292 291 291 291 291 290 289 288 288 287 286
267 267 269 270 271 271 271 272 274 276 278 279 280 281 282 283 284 285 286 286 286 286 287 288 289 289 290 291 291 292 293 293 294 295 296 297 297 296 296 296 296 297 297 298 299 299 300 300 301 302 302 303 304 304 304 304 303 302 301 301 301 301 303 304 302 301 300 299 298 297 296 296 295 294 292 291 291 292 291 290 290 291 290 288 286
271 271 272 272 272 272 273 275 277 278 279 280 281 281 282 284 285 285 285 284 285 285 286 287 288 288 289 290 292 292 292 293 294 295 295 295 295 294 294 294 295 295 296 297 298 299 300 301 302 303 304 304 305 305 305 304 303 302 302 301 301 302 302 301 299 299 299 298 297 297 296 296 295 294 292 291 290 290 288 287 289 288 286 285 284
274 274 274 273 274 275 276 277 278 278 279 279 280 281 282 283 283 283 283 283 284 284 285 286 287 288 289 291 293 293 292 292 293 294 294 294 293 293 293 293 294 295 296 297 299 300 301 302 303 304 305 305 305 305 305 304 303 302 302 301 301 302 302 300 300 300 301 301 301 301 301 300 299 297 293 288 285 283 282 283 284 283 282 283 284
276 276 276 276 277 277 277 277 277 276 277 277 278 280 281 282 282 283 283 283 284 284 284 285 287 288 290 292 293 292 292 292 293 294 294 294 293 294 294 294 295 296 297 299 300 301 302 303 304 305 305 305 305 305 304 304 302 301 301 301 302 303 303 303 303 303 304 304 304 303 302 302 301 299 295 290 286 283 282 281 281 281 281 282 281
277 278 278 277 277 277 276 275 275 275 276 278 279 281 281 282 282 283 283 283 284 284 285 286 287 289 291 292 293 292 292 292 293 294 294 294 294 294 295 295 296 298 299 300 301 302 303 304 305 306 306 306 305 305 304 302 300 300 302 303 305 306 305 304 304 305 305 304 303 302 301 301 300 298 296 292 290 288 286 284 283 283 282 282 281
278 278 278 278 278 277 276 275 275 276 277 278 279 280 280 281 282 283 284 284 285 286 286 287 289 290 291 293 294 294 293 293 294 294 295 294 294 295 296 297 298 299 300 301 302 304 305 306 307 307 307 306 305 305 303 301 299 300 302 303 304 305 304 304 304 305 304 302 301 300 300 299 299 297 294 292 290 288 285 284 284 283 282 282 283
277 277 277 278 277 276 275 275 275 275 276 277 278 279 280 281 283 284 285 286 287 287 288 289 290 292 293 294 295 294 294 293 294 295 295 295 295 295 297 298 299 300 301 302 304 306 307 308 308 307 306 306 305 304 302 301 300 300 301 302 302 302 303 303 304 304 303 301 300 299 298 298 297 296 294 292 289 286 285 284 285 284 283 283 284
276 276 277 277 275 275 274 274 274 274 276 277 278 279 281 282 283 284 285 286 287 287 288 289 290 292 293 294 295 294 293 293 293 294 295 295 295 296 297 298 300 301 303 304 306 307 308 308 308 307 306 305 304 303 301 300 300 300 301 302 302 303 304 304 305 304 303 302 301 299 299 298 296 294 292 290 288 287 288 287 287 287 287 288 289
277 277 277 275 274 274 274 273 274 275 277 278 279 280 281 282 283 283 283 284 285 286 286 287 289 290 292 293 294 294 293 292 292 293 294 294 295 296 297 298 300 302 304 305 306 308 308 308 307 307 306 304 303 301 300 299 300 302 303 304 305 306 307 307 306 305 304 303 301 300 299 299 296 293 290 287 286 287 288 286 285 285 286 288 289
278 278 277 276 275 275 275 276 277 278 278 279 280 280 281 281 282 282 282 283 283 284 285 286 287 289 291 291 292 292 291 291 291 292 293 294 295 296 297 299 300 302 303 304 306 308 308 308 307 306 304 303 302 301 300 301 303 306 307 308 308 309 308 307 306 305 304 303 302 301 300 299 296 292 287 283 283 284 284 283 281 281 282 284 286
280 280 279 278 277 277 278 279 281 281 280 280 280 280 280 281 281 281 281 281 282 283 284 285 286 288 289 289 290 290 289 290 291 292 293 294 294 296 297 298 300 301 302 304 307 308 308 307 307 305 304 303 302 302 304 306 308 309 309 310 310 310 309 307 306 305 305 304 304 302 302 300 298 295 289 283 281 281 282 282 281 280 281 282 283
280 280 279 278 278 278 279 281 283 282 281 280 280 280 280 280 280 280 280 280 281 282 283 284 286 287 287 288 288 289 289 289 290 291 292 293 294 295 297 299 301 302 304 306 307 308 308 308 306 305 303 302 302 303 307 309 309 310 311 313 313 312 310 307 305 305 306 307 306 305 304 302 300 298 294 288 284 281 280 280 281 282 283 283 283
278 278 277 277 277 277 278 279 281 281 280 278 278 278 279 279 279 279 278 279 280 281 283 284 285 286 286 287 288 288 288 289 289 290 292 293 294 296 299 302 303 304 305 307 308 308 308 307 306 304 303 302 302 305 308 309 311 313 314 315 315 314 313 310 307 307 309 309 309 309 307 304 302 300 297 294 290 286 282 281 282 284 285 285 284
276 276 275 275 275 275 275 276 278 279 278 277 277 277 278 278 279 278 278 279 280 281 282 283 284 285 286 286 287 287 288 288 289 290 291 293 296 299 302 304 305 305 306 308 309 309 308 306 304 303 302 302 305 309 311 312 314 315 315 316 318 318 317 315 312 311 312 313 313 314 312 309 307 304 301 298 296 292 289 286 285 285 285 286 286
273 274 274 273 273 272 272 273 275 277 277 277 277 278 278 279 279 279 279 279 280 281 282 282 283 284 285 285 286 286 287 287 288 290 293 296 298 301 303 304 304 305 307 308 309 308 306 304 303 302 302 305 309 312 314 315 316 317 318 320 322 322 322 321 318 316 316 316 316 317 316 314 312 309 306 303 301 299 297 294 292 291 290 290 291
272 273 273 272 270 269 269 271 273 276 278 277 278 278 278 279 279 279 278 279 280 281 281 281 282 283 284 285 285 286 287 288 289 292 295 298 300 302 303 304 304 306 308 308 308 306 304 302 301 302 304 308 312 314 316 317 318 319 321 323 325 326 326 325 323 321 319 318 318 318 317 317 315 313 311 308 306 304 303 301 300 299 297 296 295
270 271 271 269 267 266 267 269 272 275 277 278 278 279 279 279 279 279 279 279 279 280 281 281 282 282 283 284 285 286 287 289 291 294 296 298 301 302 303 304 305 306 308 308 306 304 302 301 301 303 306 310 313 315 316 317 317 319 322 324 326 328 329 328 326 323 320 318 317 316 316 316 316 315 314 312 310 308 306 305 303 302 300 300 299
268 268 268 266 265 265 267 269 271 273 276 278 278 279 279 280 280 279 279 280 280 281 281 281 281 282 282 283 285 286 288 290 293 295 297 299 300 302 302 304 305 307 307 306 304 301 299 299 301 304 307 310 312 313 315 315 316 319 321 324 327 329 331 331 329 325 322 319 317 316 316 315 315 315 314 314 313 310 308 307 305 303 302 301 300
268 267 266 265 266 267 268 269 270 271 273 275 278 279 280 281 281 280 279 280 281 283 284 283 283 283 283 284 285 287 289 292 294 295 297 298 300 301 303 304 305 306 306 304 301 299 299 299 302 305 306 308 309 311 313 313 315 318 321 323 327 329 331 333 332 330 328 326 324 323 321 319 318 316 315 314 313 311 309 307 304 302 301 299 298
268 268 267 267 267 267 268 269 269 270 271 274 277 279 281 282 282 281 280 280 280 282 284 284 284 284 284 285 286 288 290 292 294 295 296 298 299 301 303 304 305 305 304 301 299 298 298 299 302 303 304 306 308 309 310 311 314 318 321 323 326 329 331 334 336 336 335 332 329 327 326 324 323 321 318 316 314 311 308 305 303 300 298 295 294
270 269 268 268 268 269 269 269 269 270 271 274 277 279 280 281 282 282 282 281 281 281 281 282 283 283 284 284 286 287 290 291 293 294 295 296 298 300 303 304 303 303 300 298 296 295 296 298 300 301 302 304 305 306 307 310 312 316 319 322 325 329 332 336 338 339 338 334 330 328 327 326 326 324 322 320 318 314 310 307 303 300 297 294 291
270 269 268 268 269 269 270 270 270 270 272 274 276 279 280 281 282 282 282 282 281 281 280 280 281 282 283 284 285 287 289 290 292 293 294 295 297 300 302 303 302 300 297 294 293 293 294 296 298 299 300 301 302 303 305 307 310 313 316 320 324 328 332 336 338 339 338 337 334 331 329 328 326 325 324 323 322 320 317 313 308 304 300 296 294
270 270 270 270 270 270 270 270 270 272 273 275 277 279 280 281 282 282 282 282 281 281 280 279 280 280 281 283 284 286 288 289 291 292 293 294 297 300 302 301 300 298 294 292 291 292 293 294 296 296 297 297 298 300 303 305 308 310 314 317 321 325 329 332 335 336 337 338 337 336 334 332 329 326 324 323 323 323 321 318 314 310 305 302 299
273 273 273 273 272 271 271 271 272 274 276 277 278 279 280 281 281 281 281 281 281 280 280 279 279 279 280 281 283 285 286 288 290 291 293 295 297 300 301 300 298 295 292 291 291 290 291 292 293 293 293 294 296 298 301 303 306 308 311 315 318 321 325 328 330 333 335 337 337 338 337 337 334 331 327 326 325 324 322 319 317 314 311 307 304
275 275 275 274 274 273 273 274 276 277 278 279 279 280 280 281 280 280 280 280 280 280 279 278 278 278 279 280 281 283 285 287 288 290 292 295 298 300 300 298 295 292 290 289 288 288 289 290 290 290 290 291 293 296 299 301 303 306 308 312 315 318 321 323 325 328 331 334 335 336 338 338 337 335 333 332 330 328 324 320 317 315 313 310 307
277 276 277 276 276 277 277 278 279 280 280 281 281 281 281 280 280 279 279 278 278 278 277 277 277 277 277 279 280 281 283 285 287 289 291 294 297 298 297 295 291 288 286 286 286 286 287 288 288 288 288 289 291 294 297 299 301 302 305 308 311 313 316 318 321 323 326 330 332 334 336 337 337 336 336 336 335 333 330 325 320 317 314 311 309
278 279 279 280 280 281 281 281 281 281 281 280 280 280 279 278 278 277 277 276 276 276 276 276 276 276 276 278 279 280 282 283 285 287 290 293 295 296 294 290 286 284 284 284 284 285 285 286 286 286 287 288 290 293 296 298 299 300 302 304 307 309 311 314 316 319 322 325 328 330 333 335 335 335 336 338 338 337 336 333 328 323 318 313 309
281 281 282 282 282 281 281 280 280 279 278 278 277 277 277 277 276 276 276 275 275 275 275 275 275 275 275 276 277 279 280 281 283 285 289 291 293 293 290 286 282 281 282 282 283 284 285 285 285 285 286 287 290 293 295 297 298 299 301 302 304 306 308 310 313 315 318 322 324 327 330 332 333 333 335 338 339 340 340 339 337 334 328 320 313
282 281 281 280 280 279 279 279 278 278 278 277 277 277 276 276 275 275 274 274 274 273 273 273 273 273 274 274 275 277 278 279 282 284 287 289 290 289 286 282 279 279 280 282 283 284 284 284 284 285 286 287 289 292 294 295 296 298 299 300 302 304 305 307 309 312 315 318 321 324 328 329 330 331 334 337 339 341 342 342 343 343 340 333 325
282 281 281 281 281 281 281 280 280 279 279 278 277 276 275 274 273 272 271 271 270 270 270 269 270 270 271 272 273 274 276 278 280 283 285 287 287 285 281 278 277 277 279 281 282 283 283 284 284 285 286 288 289 291 292 293 294 296 297 298 300 302 303 305 307 309 311 314 317 321 324 326 327 329 332 334 337 340 341 342 344 346 346 343 338
283 283 283 283 283 282 282 281 280 280 279 277 276 275 274 273 271 270 269 268 267 267 267 267 267 268 268 270 271 273 274 276 279 281 283 283 283 279 276 274 275 276 278 280 281 281 282 282 283 285 287 288 289 290 292 292 293 295 296 297 299 300 301 303 305 306 308 310 313 316 319 322 324 327 329 331 334 337 339 341 343 346 347 347 344
286 286 285 285 285 285 284 284 283 283 281 280 278 276 275 273 272 270 269 268 267 266 266 266 266 267 268 269 270 272 273 274 276 278 279 279 277 273 271 271 273 275 277 278 279 279 280 281 283 284 287 288 289 290 292 293 294 295 296 297 299 300 301 302 304 305 306 307 309 311 314 317 320 324 326 328 331 334 336 338 341 344 346 347 346
289 289 289 289 289 289 290 290 290 289 287 285 282 279 277 274 272 270 269 268 266 266 265 265 265 265 266 267 268 269 270 271 272 273 274 273 270 267 268 270 273 274 275 276 276 277 278 280 283 285 286 288 289 291 292 293 294 295 296 298 299 300 302 303 304 305 306 306 307 308 309 311 315 319 322 325 328 330 332 335 337 340 343 345 346
291 292 292 293 294 296 298 298 297 296 293 289 286 282 279 276 273 271 269 267 265 264 263 262 262 262 262 263 264 264 265 266 268 268 268 265 263 263 267 270 271 272 272 272 273 275 278 281 283 285 287 289 290 291 292 293 294 295 296 297 299 300 301 302 303 305 306 306 306 306 306 306 308 313 317 321 324 326 327 330 333 336 339 341 344
294 294 295 297 300 303 306 307 306 304 300 295 291 287 283 279 275 272 269 266 264 262 261 260 259 259 259 259 259 260 261 262 262 261 259 258 259 263 267 268 268 268 269 271 273 276 279 281 284 286 288 289 291 292 292 293 294 295 296 297 298 299 300 301 302 303 305 306 306 306 305 305 306 307 310 314 318 321 323 326 329 332 335 337 339
Height
3109 3108 3108 3107 3106 3105 3105 3104 3103 3102 3101 3100 3099 3098 3096 3095 3094 3093 3092 3091 3090 3088 3087 3086 3084 3083 3082 3080 3079 3078 3076 3075 3073 3072 3071 3069 3068 3066 3065 3063 3061 3060 3058 3057 3055 3054 3052 3051 3049 3047 3046 3044 3042 3040 3038 3036 3034 3033 3031 3029 3027 3024 3021 3018 3012 3009 3011 3012 3010 3008 3005 3004 3008 3010 3009 3010 3011 3008 3005 3003 3001 3000 3000 3001 3001
3105 3104 3103 3103 3102 3101 3100 3099 3098 3097 3096 3095 3094 3093 3092 3091 3090 3089 3088 3086 3085 3084 3083 3082 3080 3079 3078 3076 3075 3074 3072 3071 3069 3068 3066 3065 3063 3061 3060 3058 3056 3055 3053 3052 3050 3049 3047 3046 3044 3042 3041 3039 3037 3035 3033 3032 3030 3028 3026 3024 3022 3020 3016 3012 3008 3003 3003 3005 3005 3003 2999 2995 2996 2998 2996 2996 3000 3001 2999 2998 2995 2991 2991 2991 2992
3100 3100 3099 3099 3098 3096 3095 3094 3093 3092 3092 3091 3090 3089 3088 3087 3086 3084 3083 3082 3081 3080 3078 3077 3076 3075 3074 3072 3071 3070 3068 3067 3065 3063 3062 3060 3058 3057 3055 3054 3052 3050 3049 3047 3045 3044 3042 3041 3039 3037 3036 3034 3032 3030 3028 3027 3025 3023 3021 3019 3017 3015 3012 3008 3004 2999 2996 2997 2998 2997 2993 2988 2986 2987 2985 2983 2988 2990 2988 2989 2989 2986 2984 2983 2981
3096 3096 3095 3094 3093 3092 3091 3090 3089 3088 3088 3087 3086 3085 3083 3082 3080 3079 3078 3077 3076 3075 3074 3073 3072 3071 3069 3068 3066 3065 3063 3062 3060 3059 3057 3055 3054 3052 3051 3049 3047 3045 3044 3042 3041 3039 3037 3035 3034 3032 3030 3028 3026 3025 3023 3021 3019 3017 3015 3013 3011 3008 3006 3003 2999 2996 2991 2990 2991 2991 2987 2982 2978 2977 2975 2973 2975 2980 2978 2977 2978 2978 2978 2976 2973
3093 3092 3091 3089 3088 3087 3086 3085 3085 3084 3083 3082 3081 3080 3078 3077 3076 3075 3074 3073 3072 3071 3070 3069 3068 3066 3065 3063 3062 3060 3059 3057 3055 3054 3052 3051 3049 3047 3046 3044 3042 3041 3039 3037 3035 3034 3032 3030 3028 3026 3024 3022 3020 3018 3017 3015 3013 3011 3008 3006 3004 3002 3000 2997 2993 2990 2986 2983 2984 2984 2982 2977 2971 2968 2967 2963 2963 2967 2968 2966 2967 2968 2968 2968 2966
3088 3087 3086 3085 3084 3083 3082 3081 3080 3079 3079 3078 3077 3075 3074 3073 3072 3071 3070 3069 3068 3067 3066 3064 3063 3062 3060 3059 3057 3055 3054 3052 3050 3049 3047 3045 3044 3042 3040 3039 3037 3036 3034 3032 3030 3028 3027 3025 3023 3021 3018 3016 3014 3012 3010 3008 3006 3004 3002 2999 2997 2994 2992 2990 2986 2983 2980 2977 2975 2974 2974 2971 2966 2961 2960 2956 2953 2954 2955 2954 2956 2958 2957 2957 2957
3084 3082 3081 3080 3079 3078 3077 3077 3076 3075 3074 3073 3072 3071 3070 3068 3067 3066 3065 3064 3063 3063 3061 3060 3059 3057 3055 3054 3052 3050 3048 3046 3045 3043 3042 3040 3039 3037 3035 3034 3032 3031 3029 3027 3025 3023 3021 3019 3017 3015 3013 3010 3008 3005 3003 3001 2999 2997 2995 2992 2989 2987 2984 2982 2979 2975 2972 2970 2968 2965 2964 2963 2959 2955 2952 2949 2946 2944 2942 2940 2942 2947 2947 2946 2947
3079 3078 3076 3075 3075 3074 3073 3072 3071 3071 3070 3069 3068 3066 3065 3064 3063 3062 3061 3060 3059 3058 3057 3056 3054 3052 3050 3049 3047 3045 3043 3041 3040 3038 3037 3035 3034 3032 3031 3029 3027 3026 3024 3022 3020 3017 3015 3014 3011 3009 3007 3005 3002 3000 2997 2994 2992 2990 2988 2985 2982 2980 2977 2974 2971 2968 2965 2962 2960 2958 2955 2953 2952 2948 2944 2941 2939 2937 2934 2929 2930 2934 2935 2935 2938
3074 3073 3072 3071 3071 3070 3068 3067 3067 3066 3065 3064 3063 3062 3061 3059 3058 3057 3056 3055 3055 3053 3052 3051 3050 3048 3046 3044 3042 3040 3038 3037 3035 3034 3032 3031 3029 3028 3026 3025 3023 3021 3019 3017 3015 3012 3010 3008 3006 3004 3002 2999 2997 2994 2992 2989 2986 2984 2982 2979 2976 2973 2970 2967 2964 2960 2957 2955 2952 2949 2946 2944 2943 2941 2937 2934 2932 2930 2926 2923 2922 2923 2922 2923 2929
3070 3068 3068 3067 3067 3065 3064 3063 3062 3062 3061 3060 3058 3057 3056 3055 3054 3053 3052 3051 3050 3049 3048 3046 3044 3043 3041 3039 3037 3035 3033 3032 3030 3029 3027 3026 3025 3023 3021 3020 3018 3016 3014 3012 3009 3007 3005 3002 3000 2998 2996 2994 2992 2989 2986 2983 2981 2978 2975 2972 2969 2966 2963 2960 2956 2953 2949 2947 2945 2942 2938 2936 2935 2932 2929 2927 2925 2922 2919 2916 2916 2916 2913 2912 2918
3065 3064 3063 3063 3062 3060 3059 3058 3058 3057 3056 3055 3054 3053 3052 3051 3050 3049 3047 3046 3045 3044 3043 3041 3039 3038 3036 3034 3032 3030 3029 3027 3026 3024 3023 3021 3019 3018 3016 3015 3013 3010 3008 3006 3004 3001 2999 2997 2995 2993 2991 2988 2986 2984 2981 2978 2975 2972 2969 2966 2963 2959 2956 2952 2948 2945 2941 2939 2937 2934 2931 2929 2927 2924 2921 2919 2917 2915 2912 2909 2908 2908 2905 2903 2906
3060 3059 3059 3058 3057 3055 3055 3054 3054 3053 3052 3051 3050 3049 3048 3046 3045 3044 3043 3042 3041 3039 3038 3036 3034 3032 3031 3029 3028 3026 3024 3022 3021 3020 3018 3016 3014 3013 3011 3009 3007 3005 3002 3000 2998 2996 2994 2992 2989 2987 2985 2983 2980 2977 2975 2972 2969 2966 2963 2960 2957 2954 2949 2945 2941 2937 2933 2931 2929 2928 2924 2921 2919 2916 2913 2911 2910 2908 2906 2903 2901 2899 2898 2895 2895
3056 3055 3054 3053 3052 3051 3050 3049 3049 3048 3047 3046 3045 3044 3043 3042 3041 3040 3039 3037 3036 3034 3033 3031 3029 3027 3026 3024 3023 3021 3019 3018 3017 3015 3013 3011 3009 3008 3006 3004 3002 2999 2997 2995 2993 2990 2988 2986 2984 2982 2979 2977 2974 2971 2968 2965 2962 2959 2957 2954 2951 2947 2943 2939 2935 2931 2927 2923 2922 2920 2917 2913 2911 2909 2906 2903 2903 2902 2899 2897 2895 2892 2891 2888 2886
3051 3050 3049 3048 3047 3046 3045 3045 3044 3043 3043 3042 3041 3040 3039 3038 3037 3036 3034 3033 3031 3029 3028 3026 3025 3023 3021 3020 3018 3017 3015 3013 3012 3010 3008 3006 3004 3003 3001 2999 2996 2994 2992 2990 2988 2985 2983 2981 2979 2976 2974 2971 2968 2964 2961 2958 2955 2952 2949 2946 2944 2940 2936 2933 2929 2925 2921 2918 2915 2913 2910 2907 2903 2901 2899 2896 2896 2895 2891 2889 2888 2885 2884 2882 2879
3046 3045 3044 3043 3042 3042 3041 3040 3039 3038 3038 3037 3036 3036 3035 3033 3032 3031 3029 3028 3026 3025 3023 3021 3020 3018 3017 3015 3014 3012 3010 3008 3007 3005 3003 3001 2999 2998 2996 2994 2991 2989 2987 2985 2983 2980 2978 2976 2973 2971 2968 2965 2962 2958 2954 2950 2947 2944 2941 2938 2936 2933 2930 2927 2923 2920 2916 2912 2908 2906 2903 2900 2897 2894 2892 2890 2889 2888 2885 2883 2881 2878 2877 2875 2873
3041 3040 3039 3038 3038 3037 3036 3035 3034 3033 3033 3032 3032 3031 3030 3028 3027 3026 3024 3023 3021 3020 3019 3017 3015 3014 3012 3011 3009 3008 3006 3003 3002 3000 2998 2996 2994 2993 2991 2989 2986 2984 2982 2980 2978 2975 2973 2970 2967 2965 2962 2960 2956 2952 2948 2943 2939 2935 2932 2930 2928 2925 2922 2920 2917 2913 2910 2906 2902 2899 2896 2893 2890 2887 2886 2883 2881 2880 2878 2875 2874 2872 2869 2868 2866
3035 3035 3034 3034 3033 3032 3031 3030 3029 3029 3028 3027 3027 3026 3024 3023 3022 3021 3019 3018 3017 3015 3014 3012 3011 3009 3008 3006 3005 3003 3001 2999 2997 2995 2993 2991 2989 2988 2986 2984 2982 2979 2977 2975 2972 2970 2968 2965 2962 2959 2956 2953 2950 2946 2941 2936 2931 2927 2924 2922 2919 2917 2915 2912 2909 2905 2903 2900 2896 2893 2890 2887 2884 2881 2880 2878 2877 2876 2872 2869 2868 2866 2863 2860 2858
3030 3030 3029 3028 3027 3027 3026 3025 3025 3024 3023 3023 3022 3021 3019 3018 3017 3016 3015 3013 3012 3011 3009 3008 3006 3004 3003 3001 3000 2998 2996 2994 2992 2990 2988 2986 2984 2982 2981 2978 2976 2974 2972 2969 2967 2964 2962 2959 2956 2953 2950 2947 2943 2939 2935 2930 2924 2921 2917 2914 2912 2910 2908 2905 2901 2898 2895 2892 2890 2887 2884 2883 2880 2878 2876 2875 2874 2873 2868 2864 2863 2860 2856 2854 2852
3025 3024 3024 3023 3022 3022 3021 3021 3020 3019 3018 3018 3017 3016 3015 3014 3012 3011 3010 3009 3007 3006 3004 3003 3001 3000 2998 2997 2995 2993 2991 2989 2987 2985 2983 2981 2979 2977 2975 2973 2971 2969 2966 2964 2961 2959 2956 2953 2950 2947 2943 2940 2936 2933 2929 2924 2918 2914 2911 2907 2904 2903 2901 2897 2893 2890 2887 2884 2881 2879 2876 2875 2873 2872 2871 2870 2869 2868 2864 2861 2859 2855 2851 2849 2848
3020 3020 3019 3018 3018 3017 3017 3016 3015 3015 3014 3013 3012 3011 3010 3009 3008 3006 3005 3004 3003 3001 2999 2998 2996 2995 2993 2992 2990 2988 2986 2984 2982 2980 2978 2976 2974 2972 2970 2968 2965 2963 2960 2958 2955 2953 2950 2947 2944 2941 2937 2933 2930 2926 2923 2919 2913 2909 2905 2902 2898 2896 2893 2889 2886 2882 2879 2876 2874 2871 2868 2866 2865 2864 2864 2862 2861 2860 2858 2856 2853 2850 2847 2845 2844
3015 3015 3014 3014 3013 3013 3012 3011 3010 3010 3009 3008 3007 3006 3005 3004 3003 3002 3000 2999 2998 2996 2995 2993 2992 2990 2989 2987 2985 2983 2981 2979 2978 2975 2973 2971 2969 2966 2964 2962 2960 2957 2954 2952 2949 2947 2944 2941 2938 2934 2930 2927 2924 2920 2917 2913 2909 2905 2901 2897 2893 2890 2886 2882 2879 2876 2873 2870 2867 2864 2862 2860 2859 2858 2857 2855 2854 2853 2851 2849 2847 2845 2843 2841 2839
3011 3010 3010 3009 3008 3008 3007 3006 3005 3004 3004 3003 3002 3001 3000 2999 2998 2997 2995 2994 2993 2991 2990 2989 2987 2986 2984 2982 2980 2978 2976 2974 2973 2971 2968 2966 2964 2961 2959 2956 2954 2951 2948 2945 2943 2940 2937 2934 2930 2927 2923 2920 2917 2914 2910 2907 2904 2901 2897 2893 2889 2885 2881 2877 2873 2871 2867 2864 2861 2858 2856 2854 2852 2851 2850 2849 2848 2846 2845 2843 2842 2840 2839 2836 2834
3006 3005 3005 3004 3003 3003 3002 3001 3000 3000 2999 2998 2997 2996 2995 2994 2993 2992 2990 2989 2988 2986 2985 2984 2982 2980 2979 2977 2975 2973 2971 2969 2967 2966 2963 2961 2958 2956 2953 2950 2948 2944 2941 2939 2937 2934 2931 2927 2923 2920 2917 2913 2910 2907 2904 2901 2898 2895 2892 2888 2884 2880 2876 2872 2868 2865 2862 2858 2855 2852 2851 2849 2847 2845 2844 2843 2842 2840 2839 2838 2837 2835 2833 2832 2831
3001 3000 3000 2999 2998 2998 2997 2996 2996 2995 2994 2993 2992 2991 2990 2989 2987 2986 2985 2984 2982 2981 2980 2978 2976 2975 2973 2971 2969 2967 2966 2964 2962 2960 2958 2956 2953 2951 2948 2945 2942 2938 2935 2932 2930 2927 2924 2921 2917 2913 2910 2907 2904 2901 2898 2895 2892 2889 2886 2883 2879 2875 2870 2866 2863 2859 2856 2853 2850 2847 2845 2844 2843 2840 2839 2838 2836 2835 2834 2833 2831 2830 2828 2827 2826
2996 2995 2995 2994 2994 2993 2992 2992 2991 2990 2989 2988 2986 2985 2984 2983 2982 2981 2979 2978 2977 2975 2974 2973 2971 2969 2967 2965 2963 2962 2960 2959 2957 2955 2953 2951 2948 2946 2943 2940 2937 2933 2929 2926 2924 2921 2918 2915 2911 2907 2904 2901 2898 2895 2893 2890 2887 2884 2880 2877 2873 2869 2864 2860 2856 2853 2849 2847 2844 2842 2840 2839 2838 2836 2834 2833 2831 2830 2830 2828 2826 2825 2824 2822 2821
2991 2990 2990 2989 2989 2988 2987 2986 2985 2984 2983 2982 2981 2980 2979 2977 2976 2975 2974 2973 2971 2970 2968 2967 2965 2963 2961 2959 2958 2956 2955 2953 2952 2950 2948 2945 2943 2940 2937 2934 2931 2927 2924 2921 2918 2915 2912 2909 2905 2902 2898 2896 2893 2890 2887 2884 2881 2878 2874 2871 2867 2863 2859 2855 2851 2847 2844 2841 2839 2837 2835 2834 2833 2831 2830 2828 2826 2826 2825 2823 2821 2820 2820 2818 2815
2986 2985 2985 2984 2983 2982 2982 2981 2980 2979 2977 2976 2975 2974 2973 2972 2970 2969 2968 2967 2965 2964 2963 2961 2959 2958 2956 2954 2952 2950 2949 2948 2946 2944 2942 2940 2937 2935 2932 2929 2925 2922 2918 2915 2912 2909 2906 2903 2900 2896 2893 2890 2888 2885 2882 2879 2875 2872 2869 2866 2862 2858 2854 2850 2846 2842 2839 2836 2834 2832 2830 2829 2827 2826 2825 2823 2821 2821 2821 2818 2816 2815 2815 2813 2810
2980 2980 2979 2978 2978 2977 2976 2976 2975 2973 2972 2971 2969 2968 2967 2966 2964 2963 2962 2961 2959 2958 2957 2955 2954 2952 2950 2948 2946 2945 2944 2942 2940 2938 2936 2933 2931 2928 2926 2923 2919 2916 2912 2909 2906 2903 2900 2897 2894 2891 2888 2886 2883 2880 2878 2875 2871 2867 2864 2860 2857 2853 2850 2846 2842 2839 2835 2832 2829 2827 2826 2824 2822 2821 2819 2818 2816 2816 2816 2813 2811 2810 2809 2808 2804
2975 2974 2974 2973 2972 2972 2971 2970 2969 2968 2966 2965 2964 2962 2961 2960 2959 2958 2956 2955 2953 2952 2951 2950 2948 2946 2944 2943 2941 2939 2938 2937 2935 2932 2930 2927 2925 2922 2919 2916 2913 2909 2906 2904 2900 2897 2894 2891 2888 2886 2883 2881 2878 2876 2873 2870 2867 2863 2860 2856 2852 2849 2845 2841 2838 2835 2832 2829 2826 2823 2821 2819 2817 2816 2814 2813 2812 2811 2810 2808 2807 2805 2804 2802 2799
2970 2969 2968 2968 2967 2966 2965 2964 2963 2962 2960 2959 2958 2957 2955 2954 2953 2952 2950 2949 2947 2946 2945 2944 2942 2940 2938 2937 2935 2934 2932 2931 2929 2926 2924 2922 2919 2916 2913 2910 2906 2903 2900 2897 2894 2891 2888 2885 2883 2881 2878 2876 2874 2871 2868 2865 2862 2859 2856 2852 2848 2844 2841 2837 2834 2831 2828 2825 2822 2820 2817 2814 2812 2811 2809 2808 2807 2806 2805 2804 2802 2801 2799 2796 2793
2964 2963 2963 2962 2961 2961 2960 2958 2957 2956 2954 2953 2952 2951 2949 2948 2947 2946 2944 2943 2941 2940 2939 2937 2936 2934 2932 2931 2930 2928 2927 2925 2923 2920 2918 2915 2913 2910 2907 2904 2900 2897 2894 2891 2888 2885 2883 2880 2878 2876 2874 2871 2869 2866 2863 2860 2857 2854 2851 2848 2844 2840 2837 2833 2830 2827 2824 2822 2819 2816 2813 2811 2808 2806 2804 2803 2801 2800 2800 2798 2797 2795 2793 2791 2788
2958 2958 2957 2956 2956 2955 2953 2952 2951 2949 2948 2947 2946 2944 2943 2942 2941 2940 2938 2937 2935 2934 2932 2931 2929 2928 2926 2925 2924 2922 2921 2919 2917 2914 2912 2909 2906 2904 2902 2898 2894 2891 2888 2885 2883 2880 2878 2876 2874 2872 2869 2867 2864 2861 2858 2855 2852 2849 2846 2843 2840 2837 2833 2830 2827 2824 2821 2818 2815 2813 2810 2808 2805 2802 2800 2799 2797 2796 2794 2793 2792 2790 2788 2786 2784
2952 2952 2951 2950 2949 2948 2947 2945 2944 2943 2942 2941 2939 2938 2937 2936 2934 2933 2932 2931 2929 2928 2926 2925 2923 2922 2920 2919 2917 2916 2914 2913 2911 2909 2906 2903 2901 2898 2896 2892 2889 2886 2883 2880 2877 2875 2873 2871 2869 2867 2865 2862 2860 2858 2855 2852 2849 2846 2842 2839 2836 2834 2830 2827 2824 2821 2818 2815 2812 2810 2807 2805 2802 2799 2797 2795 2793 2792 2790 2789 2787 2785 2784 2782 2780
2945 2945 2944 2943 2943 2942 2940 2939 2938 2937 2936 2934 2933 2932 2931 2929 2928 2927 2925 2924 2922 2921 2920 2919 2917 2916 2915 2913 2911 2910 2908 2906 2904 2902 2900 2897 2895 2893 2890 2886 2883 2880 2877 2875 2872 2870 2869 2867 2865 2863 2861 2858 2856 2854 2852 2849 2846 2843 2840 2836 2833 2831 2828 2825 2822 2819 2816 2813 2810 2807 2804 2802 2799 2796 2794 2792 2790 2788 2787 2785 2783 2781 2780 2778 2776
2939 2938 2937 2937 2936 2935 2934 2933 2931 2930 2929 2928 2926 2925 2924 2923 2922 2920 2919 2917 2916 2914 2913 2912 2911 2910 2908 2907 2905 2904 2902 2900 2898 2896 2894 2892 2890 2887 2884 2881 2878 2875 2872 2870 2867 2865 2864 2862 2861 2859 2857 2855 2853 2851 2849 2846 2843 2840 2837 2834 2831 2828 2825 2822 2820 2817 2814 2811 2808 2805 2802 2799 2796 2793 2791 2789 2787 2785 2783 2782 2780 2778 2776 2774 2772
2932 2931 2930 2930 2929 2928 2928 2926 2925 2923 2922 2921 2920 2919 2917 2916 2915 2914 2913 2911 2910 2909 2907 2905 2904 2903 2902 2900 2899 2898 2896 2894 2892 2890 2888 2886 2884 2881 2878 2875 2872 2870 2867 2865 2863 2861 2859 2858 2857 2855 2853 2852 2850 2847 2845 2843 2840 2837 2834 2831 2828 2826 2823 2820 2817 2814 2811 2808 2805 2802 2800 2796 2793 2790 2788 2786 2784 2781 2779 2778 2776 2774 2773 2771 2768
2925 2924 2924 2923 2922 2921 2920 2919 2918 2917 2915 2914 2913 2912 2911 2909 2908 2907 2906 2905 2903 2902 2901 2899 2897 2896 2894 2893 2892 2891 2890 2888 2886 2884 2882 2880 2878 2876 2873 2870 2867 2865 2863 2861 2859 2857 2855 2853 2852 2851 2850 2848 2846 2844 2842 2840 2837 2834 2832 2829 2826 2823 2820 2817 2814 2811 2808 2805 2802 2800 2797 2794 2791 2788 2785 2783 2781 2778 2776 2774 2772 2770 2769 2767 2764
2918 2918 2917 2916 2915 2914 2914 2912 2911 2910 2909 2907 2906 2905 2904 2902 2901 2900 2899 2897 2896 2895 2894 2893 2891 2890 2888 2886 2885 2885 2883 2882 2881 2879 2876 2874 2872 2870 2867 2865 2862 2860 2859 2857 2855 2853 2851 2850 2848 2847 2846 2844 2843 2841 2839 2837 2834 2831 2829 2826 2824 2821 2818 2815 2812 2809 2806 2803 2800 2797 2795 2792 2789 2786 2783 2780 2778 2775 2773 2771 2768 2766 2764 2763 2760
2911 2911 2910 2909 2908 2907 2906 2905 2904 2903 2902 2900 2899 2898 2896 2895 2894 2892 2891 2890 2889 2888 2887 2886 2885 2883 2881 2879 2879 2878 2877 2875 2874 2873 2871 2868 2866 2864 2861 2859 2857 2855 2854 2852 2851 2849 2847 2846 2844 2843 2842 2840 2839 2837 2835 2833 2831 2828 2826 2823 2821 2818 2816 2813 2810 2808 2805 2802 2799 2796 2793 2790 2787 2784 2781 2778 2775 2773 2770 2768 2766 2763 2760 2758 2756
2904 2904 2903 2902 2901 2900 2899 2898 2897 2895 2894 2893 2891 2890 2889 2888 2886 2885 2883 2882 2881 2880 2879 2878 2877 2876 2875 2873 2872 2872 2871 2869 2867 2866 2864 2862 2860 2857 2855 2853 2851 2850 2849 2847 2846 2845 2844 2842 2841 2839 2838 2837 2835 2833 2831 2829 2827 2825 2823 2820 2818 2816 2813 2810 2808 2806 2803 2800 2797 2794 2791 2788 2785 2782 2779 2776 2773 2771 2768 2765 2763 2760 2757 2754 2752
2898 2897 2896 2895 2894 2893 2892 2891 2890 2888 2886 2885 2884 2882 2881 2880 2878 2877 2875 2874 2873 2872 2871 2870 2869 2868 2867 2867 2866 2865 2864 2863 2861 2859 2858 2857 2855 2852 2849 2847 2846 2845 2844 2843 2842 2841 2840 2838 2837 2836 2834 2833 2831 2829 2827 2825 2823 2821 2819 2817 2815 2813 2810 2808 2806 2803 2801 2798 2795 2792 2789 2786 2783 2780 2777 2774 2771 2769 2766 2763 2760 2757 2754 2751 2749
2891 2890 2889 2888 2887 2886 2885 2884 2882 2881 2879 2877 2876 2875 2873 2872 2870 2869 2867 2866 2865 2864 2863 2862 2862 2860 2860 2860 2859 2859 2858 2857 2856 2853 2852 2850 2849 2847 2844 2841 2840 2840 2839 2838 2837 2836 2835 2834 2833 2832 2830 2829 2827 2825 2823 2821 2820 2818 2816 2814 2812 2809 2807 2805 2803 2801 2798 2796 2793 2790 2787 2784 2781 2778 2775 2772 2769 2766 2763 2760 2757 2754 2751 2749 2746
2885 2884 2883 2881 2880 2879 2878 2876 2875 2873 2871 2869 2868 2866 2864 2863 2862 2860 2859 2858 2857 2856 2855 2854 2854 2853 2852 2852 2852 2852 2852 2851 2849 2847 2846 2845 2843 2842 2839 2837 2836 2835 2834 2833 2833 2832 2831 2830 2829 2828 2826 2825 2823 2821 2819 2817 2816 2814 2812 2810 2808 2806 2804 2802 2800 2798 2795 2793 2791 2788 2785 2782 2780 2777 2774 2771 2768 2764 2761 2758 2755 2752 2749 2746 2744
2879 2877 2876 2875 2873 2872 2870 2868 2867 2865 2863 2861 2859 2857 2856 2854 2853 2851 2850 2849 2848 2848 2847 2847 2846 2845 2845 2845 2845 2845 2845 2844 2843 2841 2840 2839 2838 2836 2834 2832 2831 2831 2830 2829 2828 2827 2826 2826 2825 2824 2822 2821 2819 2817 2815 2813 2812 2810 2808 2806 2805 2803 2801 2799 2797 2794 2792 2790 2788 2785 2783 2780 2778 2775 2772 2769 2766 2762 2759 2756 2753 2750 2747 2744 2742
2872 2871 2869 2868 2866 2864 2862 2860 2858 2856 2854 2852 2850 2848 2847 2845 2844 2842 2841 2840 2840 2839 2839 2838 2838 2838 2837 2837 2837 2838 2837 2837 2836 2835 2834 2833 2832 2831 2829 2828 2827 2826 2825 2824 2823 2822 2821 2821 2820 2819 2818 2816 2814 2813 2811 2809 2808 2806 2804 2802 2801 2799 2797 2795 2793 2791 2789 2786 2784 2782 2780 2777 2775 2772 2769 2767 2764 2760 2757 2754 2751 2748 2745 2742 2740
2866 2864 2862 2860 2858 2856 2854 2851 2849 2847 2845 2842 2840 2838 2836 2835 2833 2832 2831 2830 2830 2830 2830 2829 2829 2829 2829 2829 2830 2830 2830 2830 2829 2828 2828 2827 2826 2825 2824 2823 2822 2822 2821 2820 2818 2817 2817 2816 2815 2814 2813 2812 2810 2809 2807 2806 2804 2802 2800 2798 2797 2795 2793 2791 2790 2788 2785 2783 2781 2779 2777 2775 2773 2770 2767 2764 2761 2758 2755 2752 2749 2746 2743 2741 2738
2859 2857 2855 2852 2850 2847 2845 2842 2839 2836 2834 2831 2829 2827 2825 2823 2822 2821 2820 2820 2820 2820 2820 2820 2820 2821 2821 2822 2822 2822 2823 2822 2822 2822 2821 2821 2820 2819 2819 2818 2818 2817 2816 2815 2814 2813 2812 2812 2811 2810 2809 2808 2806 2805 2803 2802 2800 2799 2797 2795 2793 2791 2789 2788 2786 2784 2782 2780 2778 2776 2774 2772 2770 2767 2765 2762 2759 2757 2754 2751 2748 2745 2742 2739 2737
2851 2849 2846 2844 2841 2838 2835 2832 2829 2825 2823 2820 2817 2815 2813 2811 2810 2809 2809 2809 2809 2809 2810 2811 2812 2812 2813 2814 2814 2815 2815 2815 2815 2815 2815 2815 2814 2814 2814 2814 2813 2813 2812 2811 2810 2809 2808 2807 2806 2805 2804 2803 2802 2801 2800 2798 2797 2795 2793 2791 2789 2787 2785 2784 2782 2780 2779 2777 2775 2773 2771 2769 2767 2765 2762 2760 2757 2755 2752 2750 2747 2744 2742 2739 2736
2843 2840 2837 2834 2831 2828 2825 2822 2818 2815 2812 2808 2805 2803 2800 2799 2798 2797 2797 2797 2798 2799 2800 2802 2803 2804 2805 2806 2807 2808 2808 2808 2809 2809 2809 2809 2809 2809 2809 2809 2809 2808 2808 2807 2806 2805 2804 2803 2802 2801 2801 2800 2799 2797 2796 2795 2793 2792 2790 2788 2786 2784 2782 2780 2778 2777 2775 2773 2772 2770 2768 2766 2765 2762 2760 2758 2755 2753 2750 2748 2746 2743 2741 2738 2736
2834 2831 2829 2826 2823 2820 2817 2813 2809 2805 2801 2798 2794 2791 2789 2788 2787 2787 2787 2787 2788 2790 2791 2792 2794 2795 2797 2798 2799 2800 2801 2802 2802 2802 2803 2803 2804 2804 2804 2804 2804 2804 2803 2803 2802 2801 2800 2799 2798 2797 2796 2796 2795 2793 2792 2791 2790 2788 2786 2785 2783 2781 2779 2777 2775 2773 2772 2770 2768 2767 2765 2763 2762 2760 2758 2756 2754 2751 2749 2747 2744 2742 2740 2738 2735
2827 2824 2822 2819 2816 2813 2809 2805 2801 2797 2792 2789 2785 2782 2780 2779 2778 2778 2778 2779 2780 2781 2783 2784 2786 2788 2789 2791 2792 2793 2794 2795 2796 2797 2798 2798 2799 2799 2800 2800 2800 2799 2799 2799 2798 2798 2796 2795 2794 2793 2792 2791 2790 2789 2788 2787 2785 2784 2783 2781 2779 2778 2776 2774 2772 2771 2769 2767 2765 2764 2762 2760 2759 2757 2756 2754 2752 2750 2748 2745 2743 2741 2739 2736 2734